User: anonymous   Login
Location: Unspecified
(0.0000°N, 0.0000°E)
Time: 12:32:33
(UTC+00:00)
Language:

Meteor 2-9 - Orbit

View from above orbital plane
View from above orbital plane
View from above satellite
View from above satellite

Ground track
Ground track

The orbit data is extracted from the following two-line orbital elements,

1 13718U 82116A   18021.33713584 -.00000032 +00000-0 -23158-4 0  9994
2 13718 081.2504 119.9703 0054235 087.5934 273.1448 14.15438229812185
Epoch (UTC): 21 January 2018 08:05:28
Eccentricity: 0.0054235
inclination: 81.2504°
perigee height: 801 km
apogee height: 880 km
right ascension of ascending node: 119.9703°
argument of perigee: 87.5934°
revolutions per day: 14.15438229
mean anomaly at epoch: 273.1448°
orbit number at epoch: 81218

The dashed part of the orbit path shows where the satellite is in the earth's shadow,  

DLR